User: anonymous   Login
Location: Newark
(14.4833°N, 101.9000°E)
Time: 05:17:14
(UTC+00:00)
Language:

Gurwin Techsat 1B - Orbit

View from above orbital plane
View from above orbital plane
View from above satellite
View from above satellite

Ground track
Ground track

The orbit data is extracted from the following two-line orbital elements,

1 25397U 98043D   20330.45606952 -.00000003 +00000-0 +18139-4 0  9995
2 25397 098.7463 270.8426 0000968 009.3401 350.7795 14.23695408162461
Epoch (UTC): 25 November 2020 10:56:44
Eccentricity: 0.0000968
inclination: 98.7463°
perigee height: 812 km
apogee height: 813 km
right ascension of ascending node: 270.8426°
argument of perigee: 9.3401°
revolutions per day: 14.23695408
mean anomaly at epoch: 350.7795°
orbit number at epoch: 16246

The dashed part of the orbit path shows where the satellite is in the earth's shadow,  

DLR